Date,TemperatureHighF,TemperatureAvgF,TemperatureLowF,DewpointHighF,DewpointAvgF,DewpointLowF,HumidityHigh,HumidityAvg,HumidityLow,PressureMaxIn,PressureMinIn,WindSpeedMaxMPH,WindSpeedAvgMPH,GustSpeedMaxMPH,PrecipitationSumIn
2013-2-1,36,14,4,12,4,-1,80,70,36,30.63,30.34,0,0,0,0.00
2013-2-2,37,29,17,11,8,4,67,44,27,30.82,30.57,2,0,0,0.00
2013-2-3,38,24,9,21,11,2,75,60,27,30.63,30.16,5,0,0,0.00
2013-2-4,39,24,7,15,8,-1,71,54,26,30.47,30.09,9,0,0,0.00
2013-2-5,41,24,11,14,8,2,71,52,26,30.48,30.11,7,0,0,0.00
2013-2-6,40,25,11,23,13,5,79,64,33,30.31,29.96,4,0,0,0.00
2013-2-7,22,15,11,14,8,3,79,74,70,30.43,30.09,6,1,0,0.00
2013-2-8,34,31,29,21,11,-100,71,56,38,30.11,29.73,14,2,0,0.00
2013-2-9,33,22,13,19,12,3,85,65,41,29.92,29.58,9,2,0,0.04
2013-2-10,24,13,1,12,4,-5,79,67,44,30.31,29.90,11,1,0,0.00
2013-2-11,22,15,1,12,5,-7,81,67,45,30.40,30.10,12,2,0,0.10
2013-2-12,31,8,-9,3,-7,-16,71,54,19,30.72,30.34,4,0,0,0.00
2013-2-16,45,32,18,10,4,-1,49,33,15,30.59,30.28,5,0,0,0.00
2013-2-17,43,23,5,5,-1,-11,65,40,10,30.42,29.82,15,2,0,0.00
2013-2-18,35,19,10,4,-3,-18,69,42,11,30.36,29.78,7,1,0,0.00
2013-2-19,32,15,-3,4,-4,-13,64,47,25,30.57,29.94,5,0,0,0.00
2013-2-20,18,15,13,6,-22,-100,73,46,56,29.93,29.58,5,1,0,0.00
2013-2-21,32,17,6,15,7,-1,79,65,37,30.11,29.78,6,1,0,0.00
2013-2-22,25,13,2,14,5,-4,84,71,48,30.39,30.00,9,0,0,0.10
2013-2-23,28,12,-5,16,2,-13,84,67,45,30.53,29.82,5,0,0,0.02
2013-2-24,27,17,4,15,3,-7,85,56,26,30.30,29.76,5,0,0,0.00
2013-2-25,40,18,0,6,-3,-11,73,46,12,30.44,29.98,11,1,0,0.00
2013-2-26,27,16,4,9,-1,-7,77,50,25,30.42,29.91,13,1,0,0.00
2013-2-27,30,12,-5,1,-6,-14,66,48,20,30.77,30.40,4,0,0,0.00
2013-2-28,36,19,-2,5,-4,-12,64,41,17,30.87,30.45,7,1,0,0.00